Terminal Aerodrome Forecast
Issued by NWS

Home | Current Version | Previous Version | Graphics & Text | Print | Product List | Glossary On
Versions: 1 2 3 4 5 6 7 8 9 10 11 12 13 14 15 16 17 18 19 20 21 22 23 24 25 26
000
FTUS43 KTOP 160000 AAA
TAFFOE
TAF AMD
KFOE 160001Z 1600/1624 27018G26KT 5SM -RASN BR SCT007 OVC022
     FM160100 31018G26KT P6SM OVC022
     FM161400 33015G22KT P6SM SCT030=

USA.gov is the U.S. government's official web portal to all federal, state and local government web resources and services.